August 28th
(Preview)
August
9
4616
Meteorites http://astronomy.activeboard.com/t44680577/ellemeet-meteorite/
Asteroid 2015 QT3
(Preview)
Asteroids 2015
1
720
2015 QT3 Earth MOID = 0.0018 AU
Epoch 2015 June 27.0 TT = JDT 2457200.5 MPC
M 327.09987 (2000.0) P Q
n 0.30689665 Peri. 288.34238 +0.13750628 -0.98972406
a 2.1767470 Node 153.65867 +0.93887481 +0.11762007
e 0.8037834 Incl. 5.07114 +0.31560435 +0.08131304
P 3.21 H 24.0 G 0.15 U 7 MPEC 2015 - Q4...
Ellemeet meteorite
(Preview)
Meteorites
3
2452
The Ellemeet (Diogenite) meteorite fell in Zeeland, Netherlands, on the 28th August, 1925. A total mass of 1470 g was recovered. 51° 45'N, 4° 0'E
GSAT-6
(Preview)
Satellites
1
603
The Launch of GSLV-D6/GSAT-6 Mission from Sriharikota - Live Spoiler
Moon 26.08.15
(Preview)
Observations
0
715
Photomosaic captured with a 100mm f5 Helios refractor and vesta pro webcam.
Abell 1033
(Preview)
Galaxies
0
478
Abell 1033: Chandra Data Suggest Giant Collision Triggered "Radio Phoenix" Astronomers have found evidence for a faded electron cloud "coming back to life," much like the mythical phoenix, after two galaxy clusters collided. This "radio phoenix," so-called...
Sun 26.08.15
(Preview)
Solar 2015
0
663
Four panel white-light photomosaic captured with a 100mm f5 Helios refractor and vesta pro webcam.
Hawking Radiation
(
1 2 3 4
)
(Preview)
Physics News
31
21157
Title: Do Evaporating Black Holes Form Photospheres? Authors: Jane H. MacGibbon, B. J. Carr, Don N. Page (Version v5) Several authors, most notably Heckler, have claimed that the observable Hawking emission from a microscopic black hole is significantly modified by the formation of a photosphe...
August 27th
(
1 2
)
(Preview)
August
11
6183
Meteorites http://astronomy.activeboard.com/t44667147/yukan-meteorite/
Comet C/2014 M1 (PANSTARRS)
(Preview)
Comets 2014
4
1355
Comet C/2014 M1 (PANSTARRS) is at Opposition (5.316 AU) on the 19th July 2014
Comet C/2013 C2 (TENAGRA)
(Preview)
Comets 2013
6
3133
Orbital elements:
C/2013 C2 (Tenagra)
T 2013 May 5.36835 TT MPC
q 9.9515886 (2000.0) P Q
n 0.01965802 Peri. 271.83192 -0.88339211 -0.32053563
a 13.5969935 Node 249.59757 +0.41518314 -0.87364479
e 0.2681038 Incl. 21.39233 -0.21735075 -0.36606241
P 50.1
From 51 observations 2013 Feb....
Asteroid 2015 PM307
(Preview)
Asteroids 2015
0
363
The 120 - 270 metre wide asteroid 2015 PM307 will make a close pass (59.9 LD, 0.1538 AU) travelling at 34.37 km/second, to the Earth-Moon system on the 27th August 2015 @ 12:05 UT ±00:01. See more The Lunar Distance (LD), the distance between Earth and the Moon, equals 384,401 km, (or 0.00256 AU).
Sun 25.08.15
(Preview)
Solar 2015
0
586
Solar Storm Forecast 08-25-2015
J021659-044920
(Preview)
Galaxies
0
512
Title: J021659-044920: A relic giant radio galaxy at z ~ 1.3 Author: Prathamesh Tamhane, Yogesh Wadadekar, Aritra Basu, Veeresh Singh, C. H. Ishwara-Chandra, Alexandre Beelen, Sandeep Sirothia We report the discovery of a relic Giant Radio Galaxy (GRG) J021659-044920 at redshift z~1.3 that ex...
Supernova 2011ay
(Preview)
Supernovae
0
486
Title: The early phases of the type Iax supernova SN 2011ay Author: Tamás Szalai, József Vinkó, Krisztián Sárneczky, Katalin Takáts, József M. Benko, János Kelemen, Zoltán Kuli, Jeffrey M. Silverman, G. Howie Marion, J. Craig Wheeler We present a detailed study of the early phases of the peculiar...
«First < 1
282 283 284 285 286
2461 > Last» | Page
